Language: 


Des rapports , des résumés tant et plus, au choix de chacun....


Données Historiques de Météogheer
Journalier Rapport pour Décembre 19, 2017 Unitée:  Impériale    Métrique   Les deux
Suivant Jour »
Journalier Hebdomadaire Mensuel Annuel Sur mesure
  Max: Min: Moyenne:
Température: 48 °F 33.8 °F 39.2 °F
Point de rosée: 48.2 °F 33.8 °F 39.4 °F
Humidité: 98% 95% 98%
Vent: 8.7mph 0mph 1.9mph
Rafales: 9.8mph - -
Vent- - WSW
Pression: 30.6 in 30.4 in -
Pluie: 0 in    
Historical Graphs
 
 
Données tabulaires pour Décembre 19, 2017
Heure Température Point de rosée Pression Vent Vent Rafales Humidité Pluie Taux (Horaire) Conditions
00:01 36.7 °F 37.4 °F 30.4 in Calm   2 mph 97% 0 in
00:02 36.3 °F 35.6 °F 30.4 in Calm   2 mph 97% 0 in
00:07 36.1 °F 35.6 °F 30.4 in Calm   2.7 mph 97% 0 in
00:10 35.8 °F 35.6 °F 30.4 in Calm   2.7 mph 98% 0 in
00:16 35.4 °F 35.6 °F 30.4 in Calm   2.7 mph 98% 0 in
00:19 35.2 °F 35.6 °F 30.4 in Calm   2.7 mph 98% 0 in
00:24 35.2 °F 35.6 °F 30.4 in NNW 1.6 mph 3.4 mph 98% 0 in
00:29 35.2 °F 35.6 °F 30.4 in Calm   3.1 mph 98% 0 in
00:35 35.4 °F 35.6 °F 30.4 in Calm   2.9 mph 98% 0 in
00:38 35.4 °F 35.6 °F 30.4 in West 3.4 mph 4.5 mph 98% 0 in
00:43 35.4 °F 35.6 °F 30.4 in Calm   4.5 mph 98% 0 in
00:46 35.4 °F 35.6 °F 30.4 in Calm   4.5 mph 98% 0 in
00:51 35.8 °F 35.6 °F 30.4 in Calm   3.6 mph 98% 0 in
00:57 35.8 °F 35.6 °F 30.4 in WNW 1.6 mph 3.6 mph 98% 0 in
00:58 35.8 °F 35.6 °F 30.4 in Calm   2.5 mph 98% 0 in
01:03 35.4 °F 35.6 °F 30.4 in Calm   2 mph 98% 0 in
01:08 35.1 °F 35.6 °F 30.4 in Calm   2.2 mph 98% 0 in
01:09 35.1 °F 35.6 °F 30.4 in Calm   2.2 mph 98% 0 in
01:14 35.1 °F 35.6 °F 30.4 in WNW 0.9 mph 2 mph 98% 0 in
01:15 35.1 °F 35.6 °F 30.4 in Calm   2.2 mph 98% 0 in
01:20 35.4 °F 35.6 °F 30.4 in Calm   2.2 mph 98% 0 in
01:22 35.6 °F 35.6 °F 30.4 in Calm   2.2 mph 98% 0 in
01:26 35.6 °F 35.6 °F 30.4 in Calm     98% 0 in
01:27 35.8 °F 35.6 °F 30.4 in Calm     98% 0 in
01:32 35.8 °F 35.6 °F 30.4 in Calm   0.9 mph 98% 0 in
01:35 35.8 °F 35.6 °F 30.4 in Calm   3.4 mph 98% 0 in
01:40 35.6 °F 35.6 °F 30.4 in Calm   3.4 mph 98% 0 in
01:44 35.4 °F 35.6 °F 30.4 in Calm   2.2 mph 98% 0 in
01:49 35.1 °F 35.6 °F 30.4 in WNW 1.6 mph 1.6 mph 98% 0 in
01:54 35.1 °F 35.6 °F 30.4 in Calm   2.9 mph 98% 0 in
01:55 35.1 °F 35.6 °F 30.4 in Calm   2.9 mph 98% 0 in
02:00 35.1 °F 35.6 °F 30.4 in Calm   2.9 mph 98% 0 in
02:05 35.4 °F 35.6 °F 30.4 in Calm     98% 0 in
02:06 35.4 °F 35.6 °F 30.4 in Calm     98% 0 in
02:11 35.8 °F 35.6 °F 30.5 in Calm     98% 0 in
02:12 36 °F 35.6 °F 30.5 in Calm     98% 0 in
02:16 36.1 °F 37.4 °F 30.5 in Calm     98% 0 in
02:18 36.1 °F 37.4 °F 30.5 in Calm     98% 0 in
02:22 36.3 °F 37.4 °F 30.5 in Calm     98% 0 in
02:23 36.3 °F 37.4 °F 30.5 in Calm   2.5 mph 98% 0 in
02:28 36.3 °F 37.4 °F 30.4 in Calm   2.5 mph 98% 0 in
02:29 36.3 °F 37.4 °F 30.4 in Calm   2.5 mph 98% 0 in
02:34 36.5 °F 37.4 °F 30.4 in Calm   4.7 mph 98% 0 in
02:36 36.5 °F 37.4 °F 30.4 in Calm   4.7 mph 98% 0 in
02:38 36.7 °F 37.4 °F 30.4 in Calm   4.7 mph 98% 0 in
02:43 36.9 °F 37.4 °F 30.4 in Calm   1.1 mph 98% 0 in
02:44 36.9 °F 37.4 °F 30.4 in Calm   1.1 mph 98% 0 in
02:49 36.7 °F 37.4 °F 30.4 in Calm   2.2 mph 98% 0 in
02:54 36.5 °F 37.4 °F 30.4 in Calm   2.2 mph 98% 0 in
02:57 36.3 °F 37.4 °F 30.5 in Calm   2.2 mph 98% 0 in
03:02 36.1 °F 37.4 °F 30.5 in West 1.3 mph 2.5 mph 98% 0 in
03:03 36 °F 35.6 °F 30.5 in Calm   2.5 mph 98% 0 in
03:08 35.6 °F 35.6 °F 30.5 in Calm   2.5 mph 98% 0 in
03:10 35.4 °F 35.6 °F 30.5 in Calm   2.5 mph 98% 0 in
03:15 35.1 °F 35.6 °F 30.5 in Calm   0.9 mph 98% 0 in
03:18 35.1 °F 35.6 °F 30.5 in Calm     98% 0 in
03:23 35.1 °F 35.6 °F 30.5 in Calm     98% 0 in
03:25 34.9 °F 35.6 °F 30.5 in Calm     98% 0 in
03:30 34.9 °F 35.6 °F 30.5 in Calm     98% 0 in
03:35 34.5 °F 33.8 °F 30.5 in Calm     98% 0 in
03:36 34.3 °F 33.8 °F 30.5 in Calm     98% 0 in
03:37 34.3 °F 33.8 °F 30.5 in Calm     98% 0 in
03:42 34.5 °F 33.8 °F 30.5 in Calm     98% 0 in
03:43 34.5 °F 33.8 °F 30.5 in Calm     98% 0 in
03:46 34.5 °F 33.8 °F 30.5 in Calm     98% 0 in
03:50 34.2 °F 33.8 °F 30.5 in Calm     98% 0 in
03:55 34 °F 33.8 °F 30.5 in Calm     98% 0 in
03:58 34 °F 33.8 °F 30.5 in Calm     98% 0 in
04:01 33.8 °F 33.8 °F 30.5 in Calm     98% 0 in
04:06 33.8 °F 33.8 °F 30.5 in Calm     98% 0 in
04:09 33.8 °F 33.8 °F 30.5 in Calm     98% 0 in
04:15 33.8 °F 33.8 °F 30.5 in Calm     98% 0 in
04:17 34 °F 33.8 °F 30.5 in Calm     98% 0 in
04:19 34 °F 33.8 °F 30.5 in Calm     98% 0 in
04:24 34.2 °F 33.8 °F 30.5 in Calm     98% 0 in
04:30 34.2 °F 33.8 °F 30.5 in Calm     98% 0 in
04:36 34.3 °F 33.8 °F 30.5 in Calm     98% 0 in
04:42 34.3 °F 33.8 °F 30.5 in Calm     98% 0 in
04:43 34.3 °F 33.8 °F 30.5 in Calm     98% 0 in
04:45 34.3 °F 33.8 °F 30.5 in Calm     98% 0 in
04:50 34.3 °F 33.8 °F 30.5 in Calm     98% 0 in
04:52 34.3 °F 33.8 °F 30.5 in Calm     98% 0 in
04:57 34.5 °F 33.8 °F 30.5 in Calm     98% 0 in
05:02 34.7 °F 35.6 °F 30.5 in Calm     98% 0 in
05:05 34.7 °F 35.6 °F 30.5 in Calm     98% 0 in
05:07 34.7 °F 35.6 °F 30.5 in Calm     98% 0 in
05:11 34.7 °F 35.6 °F 30.5 in Calm     98% 0 in
05:12 34.9 °F 35.6 °F 30.5 in Calm     98% 0 in
05:17 34.9 °F 35.6 °F 30.5 in Calm     98% 0 in
05:20 34.9 °F 35.6 °F 30.5 in Calm     98% 0 in
05:21 34.9 °F 35.6 °F 30.5 in Calm     98% 0 in
05:26 34.9 °F 35.6 °F 30.5 in Calm     98% 0 in
05:31 34.9 °F 35.6 °F 30.5 in Calm     98% 0 in
05:32 34.9 °F 35.6 °F 30.5 in Calm     98% 0 in
05:37 34.9 °F 35.6 °F 30.5 in Calm     98% 0 in
05:41 34.9 °F 35.6 °F 30.5 in Calm     98% 0 in
05:46 34.9 °F 35.6 °F 30.5 in Calm     98% 0 in
05:47 34.9 °F 35.6 °F 30.5 in Calm     98% 0 in
05:52 34.7 °F 35.6 °F 30.5 in Calm     98% 0 in
05:53 34.7 °F 35.6 °F 30.5 in Calm     98% 0 in
05:58 34.5 °F 33.8 °F 30.5 in Calm     98% 0 in
06:01 34.5 °F 33.8 °F 30.5 in Calm     98% 0 in
06:06 34.3 °F 33.8 °F 30.5 in Calm     98% 0 in
06:10 34.3 °F 33.8 °F 30.5 in Calm     98% 0 in
06:12 34.3 °F 33.8 °F 30.5 in Calm     98% 0 in
06:17 34.3 °F 33.8 °F 30.5 in Calm     98% 0 in
06:19 34.3 °F 33.8 °F 30.5 in Calm     98% 0 in
06:24 34.3 °F 33.8 °F 30.5 in Calm   1.1 mph 98% 0 in
06:28 34.3 °F 33.8 °F 30.5 in Calm   3.1 mph 98% 0 in
06:32 34.5 °F 33.8 °F 30.5 in West 3.6 mph 3.6 mph 98% 0 in
06:37 34.9 °F 35.6 °F 30.5 in Calm   3.6 mph 98% 0 in
06:42 35.1 °F 35.6 °F 30.5 in Calm   4.7 mph 98% 0 in
06:43 35.1 °F 35.6 °F 30.5 in West 2.7 mph 4.7 mph 98% 0 in
06:48 35.4 °F 35.6 °F 30.5 in WSW 4.7 mph 4.7 mph 98% 0 in
06:53 35.8 °F 35.6 °F 30.5 in Calm   4.7 mph 98% 0 in
06:54 35.8 °F 35.6 °F 30.5 in WSW 3.6 mph 4.7 mph 98% 0 in
06:59 36 °F 35.6 °F 30.5 in WSW 4 mph 5.6 mph 98% 0 in
07:00 36.1 °F 37.4 °F 30.5 in West 3.4 mph 5.6 mph 98% 0 in
07:05 36.3 °F 37.4 °F 30.5 in WSW 4.9 mph 5.6 mph 98% 0 in
07:06 36.3 °F 37.4 °F 30.5 in WSW 6.3 mph 6.3 mph 98% 0 in
07:11 36.7 °F 37.4 °F 30.5 in WSW 3.8 mph 6.3 mph 98% 0 in
07:15 36.7 °F 37.4 °F 30.5 in WSW 6.3 mph 6.3 mph 98% 0 in
07:20 36.9 °F 37.4 °F 30.5 in West 3.4 mph 6.3 mph 98% 0 in
07:23 36.9 °F 37.4 °F 30.5 in West 4.9 mph 6.3 mph 98% 0 in
07:24 37 °F 37.4 °F 30.5 in West 2.7 mph 6.3 mph 98% 0 in
07:29 37 °F 37.4 °F 30.5 in West 4.3 mph 6 mph 98% 0 in
07:34 37 °F 37.4 °F 30.5 in SW 4.3 mph 6.5 mph 98% 0 in
07:39 37 °F 37.4 °F 30.5 in West 4 mph 6.5 mph 98% 0 in
07:40 37 °F 37.4 °F 30.5 in WSW 4 mph 6.5 mph 98% 0 in
07:44 36.9 °F 37.4 °F 30.5 in WSW 5.6 mph 5.8 mph 98% 0 in
07:46 36.9 °F 37.4 °F 30.5 in WSW 5.4 mph 6.5 mph 98% 0 in
07:51 36.7 °F 37.4 °F 30.5 in WSW 6.3 mph 7.2 mph 98% 0 in
07:55 36.7 °F 37.4 °F 30.5 in WSW 5.8 mph 8.5 mph 98% 0 in
07:58 36.7 °F 37.4 °F 30.5 in WSW 4.9 mph 8.5 mph 98% 0 in
08:02 36.7 °F 37.4 °F 30.5 in WSW 5.8 mph 6.5 mph 98% 0 in
08:03 36.5 °F 37.4 °F 30.5 in WSW 5.4 mph 6.5 mph 98% 0 in
08:08 36.5 °F 37.4 °F 30.5 in WSW 4.7 mph 6.5 mph 98% 0 in
08:09 36.5 °F 37.4 °F 30.5 in WSW 4 mph 6.5 mph 98% 0 in
08:13 36.5 °F 37.4 °F 30.5 in WSW 6 mph 6.5 mph 98% 0 in
08:18 36.5 °F 37.4 °F 30.5 in WSW 4 mph 6 mph 98% 0 in
08:23 36.5 °F 37.4 °F 30.5 in West 4.9 mph 7.2 mph 98% 0 in
08:26 36.3 °F 37.4 °F 30.5 in WSW 4.3 mph 7.2 mph 98% 0 in
08:30 36.3 °F 37.4 °F 30.5 in WSW 4.5 mph 7.2 mph 98% 0 in
08:34 36.3 °F 37.4 °F 30.5 in WSW 5.6 mph 6.3 mph 98% 0 in
08:39 36.3 °F 37.4 °F 30.5 in WSW 4.9 mph 5.6 mph 98% 0 in
08:42 36.1 °F 37.4 °F 30.5 in West 2.7 mph 5.6 mph 98% 0 in
08:45 36.1 °F 37.4 °F 30.5 in West 3.1 mph 5.6 mph 98% 0 in
08:47 36.1 °F 37.4 °F 30.5 in Calm   5.6 mph 98% 0 in
08:52 36.1 °F 37.4 °F 30.5 in West 3.4 mph 4 mph 98% 0 in
08:54 36.1 °F 37.4 °F 30.5 in Calm   4 mph 98% 0 in
08:59 36.1 °F 37.4 °F 30.5 in Calm   3.8 mph 98% 0 in
09:03 36.1 °F 37.4 °F 30.5 in Calm   3.1 mph 98% 0 in
09:06 36.1 °F 37.4 °F 30.5 in Calm     98% 0 in
09:10 36.3 °F 37.4 °F 30.5 in Calm     98% 0 in
09:12 36.1 °F 37.4 °F 30.6 in SSW 3.4 mph 3.4 mph 98% 0 in
09:17 36.1 °F 37.4 °F 30.6 in Calm   3.4 mph 98% 0 in
09:19 36.1 °F 37.4 °F 30.6 in Calm   3.4 mph 98% 0 in
09:24 36.1 °F 37.4 °F 30.6 in Calm     98% 0 in
09:27 36.1 °F 37.4 °F 30.5 in Calm     98% 0 in
09:32 36.1 °F 37.4 °F 30.5 in Calm     98% 0 in
09:37 36.3 °F 37.4 °F 30.5 in Calm     98% 0 in
09:38 36.3 °F 37.4 °F 30.5 in Calm     98% 0 in
09:43 36.1 °F 37.4 °F 30.6 in WSW 4.3 mph 5.4 mph 98% 0 in
09:48 36.1 °F 37.4 °F 30.6 in WSW 3.8 mph 5.4 mph 98% 0 in
09:51 36.1 °F 37.4 °F 30.6 in WSW 3.8 mph 5.4 mph 98% 0 in
09:56 36.1 °F 37.4 °F 30.6 in Calm   4.7 mph 98% 0 in
09:57 36.3 °F 37.4 °F 30.6 in Calm   3.8 mph 98% 0 in
10:02 36.3 °F 37.4 °F 30.6 in West 2.9 mph 3.8 mph 98% 0 in
10:03 36.3 °F 37.4 °F 30.6 in West 2.9 mph 3.8 mph 98% 0 in
10:08 36.1 °F 37.4 °F 30.6 in WSW 4.7 mph 5.6 mph 98% 0 in
10:11 36.1 °F 37.4 °F 30.6 in WSW 3.8 mph 5.6 mph 98% 0 in
10:16 36.1 °F 37.4 °F 30.6 in WSW 3.8 mph 5.8 mph 98% 0 in
10:21 36.1 °F 37.4 °F 30.6 in WSW 4 mph 5.8 mph 98% 0 in
10:27 36.1 °F 37.4 °F 30.6 in WSW 4.5 mph 5.4 mph 98% 0 in
10:32 36.1 °F 37.4 °F 30.6 in West 3.6 mph 5.8 mph 98% 0 in
10:33 36.1 °F 37.4 °F 30.6 in West 2.9 mph 5.8 mph 98% 0 in
10:38 36.3 °F 37.4 °F 30.6 in Calm   5.8 mph 98% 0 in
10:43 36.5 °F 37.4 °F 30.5 in Calm   4.9 mph 98% 0 in
10:44 36.5 °F 37.4 °F 30.5 in SW 3.1 mph 3.6 mph 98% 0 in
10:45 36.5 °F 37.4 °F 30.5 in Calm   3.6 mph 98% 0 in
10:50 36.7 °F 37.4 °F 30.5 in Calm   3.4 mph 98% 0 in
10:51 36.7 °F 37.4 °F 30.5 in WSW 4 mph 4.7 mph 98% 0 in
10:58 36.9 °F 37.4 °F 30.6 in SW 4 mph 4.9 mph 98% 0 in
11:00 36.9 °F 37.4 °F 30.6 in Calm   4.9 mph 98% 0 in
11:03 36.9 °F 37.4 °F 30.6 in WSW 4.3 mph 5.6 mph 98% 0 in
11:05 36.9 °F 37.4 °F 30.6 in WSW 4 mph 5.6 mph 98% 0 in
11:10 37 °F 37.4 °F 30.6 in WSW 4.3 mph 5.6 mph 98% 0 in
11:12 37 °F 37.4 °F 30.6 in WSW 4.7 mph 5.6 mph 98% 0 in
11:13 37 °F 37.4 °F 30.6 in Calm   4.7 mph 98% 0 in
11:18 37 °F 37.4 °F 30.6 in WSW 1.6 mph 5.4 mph 98% 0 in
11:20 37 °F 37.4 °F 30.6 in WSW 5.4 mph 5.6 mph 98% 0 in
11:24 37 °F 37.4 °F 30.6 in Calm   5.8 mph 98% 0 in
11:29 37.2 °F 37.4 °F 30.5 in Calm   5.8 mph 98% 0 in
11:34 37.4 °F 37.4 °F 30.5 in Calm   4.3 mph 98% 0 in
11:37 37.9 °F 37.4 °F 30.5 in Calm     98% 0 in
11:39 38.1 °F 37.4 °F 30.5 in Calm     98% 0 in
11:44 38.7 °F 39.2 °F 30.6 in Calm     98% 0 in
11:46 38.7 °F 39.2 °F 30.6 in Calm     98% 0 in
11:47 38.7 °F 39.2 °F 30.6 in Calm     98% 0 in
11:52 38.7 °F 39.2 °F 30.6 in WSW 2.5 mph 2.5 mph 98% 0 in
11:56 39.6 °F 39.2 °F 30.6 in Calm   3.6 mph 98% 0 in
12:01 40.3 °F 41 °F 30.6 in Calm   4 mph 98% 0 in
12:02 40.3 °F 41 °F 30.6 in Calm   4 mph 98% 0 in
12:08 40.8 °F 41 °F 30.6 in WSW 3.4 mph 4 mph 98% 0 in
12:13 41 °F 41 °F 30.6 in Calm   3.8 mph 98% 0 in
12:28 41.7 °F 42.8 °F 30.6 in WSW 4.3 mph 4.3 mph 98% 0 in
12:31 41.9 °F 42.8 °F 30.6 in Calm   4.3 mph 98% 0 in
12:32 42.1 °F 42.8 °F 30.6 in WSW 3.1 mph 4.3 mph 98% 0 in
12:37 42.3 °F 42.8 °F 30.6 in West 5.8 mph 5.8 mph 98% 0 in
12:39 42.3 °F 42.8 °F 30.6 in WSW 1.1 mph 5.8 mph 98% 0 in
12:44 43.5 °F 42.8 °F 30.6 in WSW 3.8 mph 5.8 mph 98% 0 in
12:45 43.7 °F 44.6 °F 30.6 in SW 3.8 mph 5.8 mph 98% 0 in
12:50 44.1 °F 44.6 °F 30.6 in Calm   5.6 mph 98% 0 in
12:51 44.1 °F 44.6 °F 30.6 in Calm   5.6 mph 98% 0 in
12:55 44.1 °F 44.6 °F 30.6 in WSW 3.8 mph 5.6 mph 98% 0 in
12:57 44.2 °F 44.6 °F 30.6 in WSW 5.8 mph 6 mph 98% 0 in
13:01 44.1 °F 44.6 °F 30.6 in Calm   6 mph 98% 0 in
13:06 43.9 °F 44.6 °F 30.6 in WSW 5.4 mph 6 mph 98% 0 in
13:07 43.9 °F 44.6 °F 30.6 in WSW 5.4 mph 6 mph 98% 0 in
13:12 44.2 °F 44.6 °F 30.6 in WSW 3.8 mph 5.8 mph 98% 0 in
13:13 44.2 °F 44.6 °F 30.6 in WSW 4.3 mph 5.8 mph 98% 0 in
13:18 44.8 °F 44.6 °F 30.6 in West 3.8 mph 5.8 mph 98% 0 in
13:23 45.5 °F 46.4 °F 30.6 in WSW 5.8 mph 5.8 mph 98% 0 in
13:25 45.9 °F 46.4 °F 30.6 in SW 3.6 mph 6 mph 98% 0 in
13:28 46.2 °F 46.4 °F 30.5 in WSW 3.8 mph 6.3 mph 98% 0 in
13:33 46.2 °F 46.4 °F 30.5 in WSW 4.3 mph 6.5 mph 98% 0 in
13:38 46 °F 46.4 °F 30.5 in West 4.9 mph 6.9 mph 98% 0 in
13:39 46 °F 46.4 °F 30.5 in West 5.6 mph 6.9 mph 98% 0 in
13:41 46 °F 46.4 °F 30.5 in WSW 5.6 mph 7.4 mph 98% 0 in
13:47 46 °F 46.4 °F 30.5 in WSW 4.9 mph 7.4 mph 98% 0 in
13:48 46.2 °F 46.4 °F 30.5 in WSW 4.5 mph 7.4 mph 98% 0 in
13:53 46.4 °F 46.4 °F 30.5 in WSW 5.4 mph 7.8 mph 98% 0 in
13:54 46.4 °F 46.4 °F 30.5 in WSW 6 mph 7.8 mph 98% 0 in
13:59 46.8 °F 46.4 °F 30.5 in WSW 6.5 mph 7.8 mph 98% 0 in
14:03 46.9 °F 48.2 °F 30.5 in WSW 5.8 mph 7.6 mph 98% 0 in
14:08 47.3 °F 48.2 °F 30.5 in WSW 6 mph 7.6 mph 98% 0 in
14:13 47.3 °F 48.2 °F 30.5 in WSW 6 mph 7.6 mph 98% 0 in
14:14 47.5 °F 48.2 °F 30.5 in WSW 4.9 mph 7.6 mph 98% 0 in
14:16 47.5 °F 48.2 °F 30.5 in WSW 5.6 mph 7.6 mph 98% 0 in
14:21 47.8 °F 48.2 °F 30.5 in WSW 5.8 mph 7.2 mph 98% 0 in
14:26 48 °F 48.2 °F 30.5 in WSW 5.6 mph 7.4 mph 98% 0 in
14:27 48 °F 48.2 °F 30.5 in WSW 4 mph 7.4 mph 98% 0 in
14:31 48 °F 48.2 °F 30.5 in WSW 5.4 mph 7.4 mph 98% 0 in
14:36 48 °F 48.2 °F 30.5 in WSW 5.4 mph 6.5 mph 98% 0 in
14:41 47.8 °F 48.2 °F 30.5 in West 7.2 mph 9.8 mph 98% 0 in
14:42 47.8 °F 48.2 °F 30.5 in WSW 7.6 mph 9.8 mph 98% 0 in
14:47 47.7 °F 48.2 °F 30.5 in West 6.5 mph 9.8 mph 98% 0 in
14:48 47.7 °F 48.2 °F 30.5 in West 7.4 mph 9.8 mph 98% 0 in
14:53 47.8 °F 48.2 °F 30.5 in WSW 8.1 mph 8.9 mph 98% 0 in
14:58 47.8 °F 48.2 °F 30.5 in WSW 8.1 mph 8.9 mph 98% 0 in
15:04 47.5 °F 48.2 °F 30.5 in WSW 5.6 mph 8.9 mph 97% 0 in
15:05 47.5 °F 48.2 °F 30.5 in WSW 8.7 mph 8.9 mph 97% 0 in
15:06 47.3 °F 48.2 °F 30.5 in WSW 7.2 mph 8.7 mph 97% 0 in
15:11 47.1 °F 46.4 °F 30.5 in WSW 6.5 mph 8.7 mph 96% 0 in
15:14 46.9 °F 46.4 °F 30.5 in West 5.8 mph 8.7 mph 96% 0 in
15:15 46.9 °F 46.4 °F 30.5 in WSW 5.8 mph 8.7 mph 96% 0 in
15:20 46.8 °F 46.4 °F 30.5 in WSW 7.8 mph 9.8 mph 95% 0 in
15:21 46.6 °F 46.4 °F 30.5 in WSW 7.6 mph 9.8 mph 95% 0 in
15:23 46.6 °F 46.4 °F 30.5 in WSW 6.5 mph 9.8 mph 95% 0 in
15:26 46.6 °F 46.4 °F 30.5 in WSW 8.1 mph 9.2 mph 95% 0 in
15:31 46.6 °F 46.4 °F 30.5 in West 6.5 mph 9.2 mph 95% 0 in
15:36 46.4 °F 46.4 °F 30.5 in WSW 5.4 mph 8.9 mph 95% 0 in
15:38 46.4 °F 46.4 °F 30.5 in West 6.5 mph 8.7 mph 95% 0 in
15:43 46.4 °F 46.4 °F 30.5 in WSW 5.8 mph 8.7 mph 95% 0 in
15:45 46.2 °F 46.4 °F 30.5 in West 5.8 mph 8.7 mph 96% 0 in
15:50 45.9 °F 44.6 °F 30.5 in WSW 6 mph 8.7 mph 96% 0 in
15:52 45.7 °F 44.6 °F 30.5 in WSW 7.4 mph 8.7 mph 95% 0 in
15:57 45.3 °F 44.6 °F 30.5 in WSW 7.2 mph 8.5 mph 96% 0 in
15:58 45.3 °F 44.6 °F 30.5 in West 6.3 mph 8.5 mph 96% 0 in
16:01 45.1 °F 44.6 °F 30.5 in WSW 4.9 mph 8.5 mph 96% 0 in
16:06 44.8 °F 44.6 °F 30.5 in WSW 6 mph 7.6 mph 96% 0 in
16:07 44.6 °F 44.6 °F 30.5 in WSW 6.3 mph 7.6 mph 96% 0 in
16:12 44.2 °F 42.8 °F 30.5 in WSW 6 mph 7.6 mph 96% 0 in
16:14 44.2 °F 42.8 °F 30.5 in WSW 4.9 mph 7.6 mph 96% 0 in
16:17 44.1 °F 42.8 °F 30.5 in WSW 3.8 mph 7.4 mph 97% 0 in
16:21 43.9 °F 42.8 °F 30.5 in WSW 4 mph 6.5 mph 97% 0 in
16:24 43.5 °F 42.8 °F 30.5 in Calm   6.5 mph 97% 0 in
16:29 43.3 °F 42.8 °F 30.5 in West 4.9 mph 6.5 mph 97% 0 in
16:30 43.2 °F 42.8 °F 30.5 in West 4.5 mph 6.3 mph 97% 0 in
16:34 43 °F 42.8 °F 30.5 in WSW 5.6 mph 6.5 mph 97% 0 in
16:39 42.6 °F 42.8 °F 30.5 in WSW 4.9 mph 6.5 mph 97% 0 in
16:40 42.6 °F 42.8 °F 30.5 in West 6 mph 6.5 mph 98% 0 in
16:44 42.4 °F 42.8 °F 30.5 in WSW 5.6 mph 6.5 mph 98% 0 in
16:47 42.1 °F 42.8 °F 30.5 in WSW 4.3 mph 6.5 mph 98% 0 in
16:49 41.9 °F 42.8 °F 30.5 in WSW 5.4 mph 6.3 mph 98% 0 in
16:53 41.5 °F 42.8 °F 30.5 in WSW 4.9 mph 5.6 mph 98% 0 in
16:58 41.2 °F 41 °F 30.5 in WSW 4.3 mph 5.6 mph 98% 0 in
17:01 41.2 °F 41 °F 30.5 in WSW 5.8 mph 5.8 mph 98% 0 in
17:06 41 °F 41 °F 30.5 in WSW 5.4 mph 5.8 mph 98% 0 in
17:11 40.8 °F 41 °F 30.5 in WSW 4.9 mph 5.8 mph 98% 0 in
17:16 40.6 °F 41 °F 30.5 in WSW 3.6 mph 5.6 mph 98% 0 in
17:21 40.5 °F 41 °F 30.5 in Calm   5.6 mph 98% 0 in
17:22 40.5 °F 41 °F 30.5 in Calm   5.6 mph 98% 0 in
17:27 40.6 °F 41 °F 30.5 in Calm   3.6 mph 98% 0 in
17:29 40.8 °F 41 °F 30.5 in Calm   3.6 mph 98% 0 in
17:34 40.8 °F 41 °F 30.5 in Calm     98% 0 in
17:39 41.2 °F 41 °F 30.5 in Calm   3.4 mph 98% 0 in
17:41 41.2 °F 41 °F 30.5 in Calm   3.4 mph 98% 0 in
17:46 41.2 °F 41 °F 30.5 in Calm   3.4 mph 98% 0 in
17:47 41.2 °F 41 °F 30.5 in Calm     98% 0 in
17:50 41.2 °F 41 °F 30.5 in Calm     98% 0 in
17:53 41.2 °F 41 °F 30.5 in Calm     98% 0 in
17:56 41.2 °F 41 °F 30.5 in Calm     98% 0 in
17:59 41.2 °F 41 °F 30.5 in Calm     98% 0 in
18:02 41.2 °F 41 °F 30.5 in Calm     98% 0 in
18:04 41 °F 41 °F 30.5 in Calm     98% 0 in
18:09 40.8 °F 41 °F 30.5 in Calm     98% 0 in
18:10 40.6 °F 41 °F 30.5 in Calm     98% 0 in
18:16 40.5 °F 41 °F 30.5 in Calm     98% 0 in
18:17 40.5 °F 41 °F 30.5 in Calm     98% 0 in
18:22 40.5 °F 41 °F 30.5 in Calm     98% 0 in
18:27 40.3 °F 41 °F 30.5 in Calm     98% 0 in
18:28 40.1 °F 41 °F 30.5 in Calm     98% 0 in
18:33 39.7 °F 39.2 °F 30.5 in Calm     98% 0 in
18:35 39.6 °F 39.2 °F 30.5 in Calm     98% 0 in
18:40 39.4 °F 39.2 °F 30.5 in Calm   2 mph 98% 0 in
18:41 39.2 °F 39.2 °F 30.5 in Calm   2 mph 98% 0 in
18:46 39 °F 39.2 °F 30.5 in Calm   2 mph 98% 0 in
18:51 38.8 °F 39.2 °F 30.5 in Calm     98% 0 in
18:53 38.8 °F 39.2 °F 30.5 in Calm     98% 0 in
18:58 38.8 °F 39.2 °F 30.5 in Calm     98% 0 in
19:03 38.7 °F 39.2 °F 30.5 in Calm     98% 0 in
19:08 38.7 °F 39.2 °F 30.5 in Calm     98% 0 in
19:13 38.7 °F 39.2 °F 30.5 in Calm     98% 0 in
19:17 38.7 °F 39.2 °F 30.5 in Calm     98% 0 in
19:22 38.8 °F 39.2 °F 30.5 in Calm     98% 0 in
19:24 39 °F 39.2 °F 30.5 in Calm     98% 0 in
19:28 39.2 °F 39.2 °F 30.5 in Calm     98% 0 in
19:32 39 °F 39.2 °F 30.5 in Calm   1.6 mph 98% 0 in
19:37 38.8 °F 39.2 °F 30.5 in Calm   1.6 mph 98% 0 in
19:41 38.8 °F 39.2 °F 30.5 in Calm   1.6 mph 98% 0 in
19:46 38.3 °F 39.2 °F 30.5 in West 2.5 mph 2.9 mph 98% 0 in
19:48 38.1 °F 37.4 °F 30.5 in Calm   2.9 mph 98% 0 in
19:53 37.6 °F 37.4 °F 30.5 in Calm   2.9 mph 98% 0 in
19:54 37.4 °F 37.4 °F 30.5 in Calm   2.9 mph 98% 0 in
19:59 37.2 °F 37.4 °F 30.5 in Calm     98% 0 in
20:06 37.2 °F 37.4 °F 30.5 in Calm     98% 0 in
20:11 37.4 °F 37.4 °F 30.5 in Calm   2.5 mph 98% 0 in
20:13 37.4 °F 37.4 °F 30.5 in Calm   2.5 mph 98% 0 in
20:18 37.6 °F 37.4 °F 30.5 in Calm     98% 0 in
20:23 37.8 °F 37.4 °F 30.5 in Calm     98% 0 in
20:25 37.8 °F 37.4 °F 30.5 in Calm     98% 0 in
20:30 38.1 °F 37.4 °F 30.5 in Calm     98% 0 in
20:32 38.1 °F 37.4 °F 30.5 in Calm     98% 0 in
20:37 38.5 °F 39.2 °F 30.5 in Calm     98% 0 in
20:38 38.5 °F 39.2 °F 30.5 in Calm     98% 0 in
20:39 38.7 °F 39.2 °F 30.5 in Calm     98% 0 in
20:44 38.8 °F 39.2 °F 30.5 in Calm     98% 0 in
20:48 38.8 °F 39.2 °F 30.5 in Calm     98% 0 in
20:50 39 °F 39.2 °F 30.5 in Calm     98% 0 in
20:55 39.2 °F 39.2 °F 30.5 in Calm     98% 0 in
21:00 39.6 °F 39.2 °F 30.5 in Calm   4.7 mph 98% 0 in
21:03 39.7 °F 39.2 °F 30.5 in Calm   4.7 mph 98% 0 in
21:08 40.1 °F 41 °F 30.5 in Calm   2.9 mph 98% 0 in
21:09 40.1 °F 41 °F 30.5 in Calm   2.9 mph 98% 0 in
21:14 40.3 °F 41 °F 30.5 in Calm   2.2 mph 98% 0 in
21:18 40.5 °F 41 °F 30.5 in Calm     98% 0 in
21:23 40.6 °F 41 °F 30.5 in Calm     98% 0 in
21:25 40.6 °F 41 °F 30.5 in Calm     98% 0 in
21:30 40.6 °F 41 °F 30.5 in Calm     98% 0 in
21:32 40.8 °F 41 °F 30.5 in West 2.7 mph 2.7 mph 98% 0 in
21:35 40.8 °F 41 °F 30.5 in Calm   2.7 mph 98% 0 in
21:40 41 °F 41 °F 30.5 in Calm   3.6 mph 98% 0 in
21:43 41 °F 41 °F 30.5 in West 5.4 mph 5.4 mph 98% 0 in
21:48 41.2 °F 41 °F 30.5 in Calm   5.4 mph 98% 0 in
21:49 41.2 °F 41 °F 30.5 in Calm   5.4 mph 98% 0 in
21:54 41.2 °F 41 °F 30.5 in Calm   4.9 mph 98% 0 in
21:55 41.4 °F 41 °F 30.5 in Calm   4.7 mph 98% 0 in
21:56 41.4 °F 41 °F 30.5 in West 3.4 mph 4.3 mph 98% 0 in
22:01 41.5 °F 42.8 °F 30.5 in Calm   4 mph 98% 0 in
22:06 41.5 °F 42.8 °F 30.5 in Calm   3.4 mph 98% 0 in
22:11 41.5 °F 42.8 °F 30.5 in Calm     98% 0 in
22:14 41.5 °F 42.8 °F 30.5 in Calm     98% 0 in
22:19 41.5 °F 42.8 °F 30.5 in Calm     98% 0 in
22:20 41.5 °F 42.8 °F 30.5 in Calm     98% 0 in
22:22 41.5 °F 42.8 °F 30.5 in Calm     98% 0 in
22:27 41.5 °F 42.8 °F 30.5 in Calm     98% 0 in
22:29 41.5 °F 42.8 °F 30.5 in Calm     98% 0 in
22:34 41.5 °F 42.8 °F 30.5 in Calm   2 mph 98% 0 in
22:36 41.5 °F 42.8 °F 30.5 in Calm   2 mph 98% 0 in
22:40 41.7 °F 42.8 °F 30.5 in Calm   3.1 mph 98% 0 in
22:42 41.7 °F 42.8 °F 30.5 in Calm   3.1 mph 98% 0 in
22:47 41.9 °F 42.8 °F 30.5 in Calm   3.1 mph 98% 0 in
22:52 41.9 °F 42.8 °F 30.5 in Calm   3.1 mph 98% 0 in
22:53 41.9 °F 42.8 °F 30.5 in Calm   3.1 mph 98% 0 in
22:58 41.9 °F 42.8 °F 30.5 in Calm     98% 0 in
22:59 41.9 °F 42.8 °F 30.5 in Calm     98% 0 in
23:04 42.1 °F 42.8 °F 30.5 in West 4 mph 4 mph 98% 0 in
23:09 42.3 °F 42.8 °F 30.5 in WSW 2.7 mph 4 mph 98% 0 in
23:11 42.3 °F 42.8 °F 30.5 in West 3.6 mph 4.7 mph 98% 0 in
23:13 42.3 °F 42.8 °F 30.5 in WSW 2.5 mph 4.7 mph 98% 0 in
23:18 42.3 °F 42.8 °F 30.5 in Calm   4.7 mph 98% 0 in
23:22 42.4 °F 42.8 °F 30.5 in Calm   4.3 mph 98% 0 in
23:24 42.4 °F 42.8 °F 30.5 in Calm   4.3 mph 98% 0 in
23:29 42.4 °F 42.8 °F 30.5 in Calm     98% 0 in
23:31 42.4 °F 42.8 °F 30.5 in Calm     98% 0 in
23:36 42.6 °F 42.8 °F 30.5 in West 2.7 mph 2.7 mph 98% 0 in
23:38 42.6 °F 42.8 °F 30.5 in WSW 4.7 mph 4.7 mph 98% 0 in
23:42 43 °F 42.8 °F 30.5 in Calm   4.7 mph 98% 0 in
23:43 43 °F 42.8 °F 30.5 in Calm   4.7 mph 98% 0 in
23:48 43 °F 42.8 °F 30.5 in Calm   2.5 mph 98% 0 in
23:50 43 °F 42.8 °F 30.5 in West 4 mph 4 mph 98% 0 in
23:55 43.2 °F 42.8 °F 30.5 in West 3.4 mph 5.6 mph 98% 0 in
23:57 43.2 °F 42.8 °F 30.5 in West 3.6 mph 5.8 mph 98% 0 in
Données Historique de Météo Turbie

Mise a jour : 26/05/2018 16:02:13
Généré par Cumulus 1.9.4 (1099)